Total_Precipitation_Accumulation
0.00 0.00 0.00 0.00 0.00 0.00 0.00 0.00 0.00 0.00 0.00 0.00 0.00 0.00 0.00 0.00 0.00 0.00 0.00 0.00 0.02 0.02 0.03 0.07 0.11 0.14 0.17
0.00 0.00 0.00 0.00 0.00 0.00 0.00 0.00 0.00 0.00 0.00 0.00 0.00 0.00 0.00 0.00 0.01 0.01 0.01 0.02 0.02 0.03 0.02 0.01 0.02 0.07 0.10
0.00 0.00 0.00 0.00 0.00 0.00 0.00 0.00 0.00 0.00 0.00 0.00 0.00 0.00 0.01 0.02 0.03 0.05 0.05 0.03 0.01 0.00 0.01 0.01 0.01 0.01 0.03
0.02 0.01 0.00 0.00 0.00 0.00 0.00 0.00 0.00 0.00 0.00 0.00 0.01 0.03 0.04 0.05 0.03 0.01 0.00 0.00 0.01 0.01 0.01 0.01 0.01 0.00 0.01
0.04 0.04 0.03 0.01 0.00 0.00 0.00 0.00 0.00 0.00 0.01 0.01 0.03 0.02 0.00 0.00 0.00 0.00 0.01 0.02 0.03 0.03 0.02 0.01 0.01 0.00 0.00
0.09 0.05 0.01 0.00 0.00 0.01 0.02 0.03 0.03 0.00 0.02 0.01 0.00 0.00 0.00 0.00 0.01 0.02 0.01 0.01 0.02 0.02 0.01 0.01 0.01 0.01 0.00
0.01 0.01 0.01 0.01 0.02 0.05 0.05 0.03 0.01 0.00 0.02 0.02 0.01 0.01 0.01 0.01 0.01 0.01 0.01 0.01 0.02 0.03 0.03 0.03 0.02 0.01 0.01
0.00 0.01 0.02 0.02 0.03 0.03 0.02 0.03 0.02 0.01 0.03 0.06 0.02 0.01 0.00 0.00 0.00 0.01 0.02 0.07 0.08 0.04 0.02 0.01 0.01 0.00 0.00
0.01 0.00 0.00 0.00 0.00 0.02 0.06 0.07 0.05 0.01 0.01 0.06 0.02 0.02 0.01 0.00 0.00 0.03 0.04 0.02 0.01 0.00 0.00 0.00 0.00 0.00 0.00
0.00 0.00 0.00 0.00 0.00 0.01 0.03 0.12 0.07 0.04 0.01 0.09 0.05 0.04 0.08 0.01 0.01 0.02 0.01 0.01 0.04 0.02 0.01 0.00 0.00 0.00 0.00
0.00 0.00 0.00 0.00 0.01 0.01 0.01 0.04 0.11 0.09 0.01 0.08 0.11 0.03 0.06 0.03 0.00 0.01 0.00 0.08 0.15 0.12 0.11 0.09 0.05 0.02 0.00
0.00 0.00 0.01 0.01 0.00 0.00 0.00 0.00 0.01 0.05 0.02 0.05 0.16 0.06 0.09 0.05 0.01 0.01 0.01 0.12 0.30 0.33 0.20 0.12 0.11 0.12 0.11
0.02 0.01 0.01 0.00 0.00 0.01 0.01 0.00 0.00 0.00 0.01 0.06 0.14 0.09 0.06 0.02 0.01 0.02 0.06 0.10 0.28 0.35 0.21 0.08 0.07 0.07 0.08
0.03 0.02 0.01 0.01 0.01 0.02 0.06 0.03 0.07 0.04 0.04 0.05 0.06 0.05 0.04 0.02 0.03 0.03 0.08 0.10 0.21 0.23 0.22 0.22 0.21 0.18 0.08
0.04 0.03 0.02 0.02 0.02 0.03 0.08 0.12 0.15 0.10 0.06 0.05 0.05 0.03 0.07 0.11 0.08 0.07 0.08 0.12 0.20 0.24 0.24 0.23 0.35 0.43 0.36
0.04 0.04 0.07 0.07 0.07 0.06 0.10 0.12 0.11 0.10 0.10 0.08 0.06 0.04 0.07 0.10 0.08 0.10 0.12 0.16 0.19 0.17 0.19 0.13 0.29 0.50 0.44
0.07 0.08 0.09 0.08 0.08 0.10 0.10 0.09 0.08 0.07 0.07 0.10 0.08 0.09 0.09 0.07 0.09 0.15 0.14 0.18 0.14 0.10 0.12 0.10 0.15 0.31 0.33